ASTRA 3B

Last updated on Tue Sep 22 2026 00:03:11 GMT+0000 (Coordinated Universal Time)

1 36581U 10021A 26264.27994308 .00000134 00000+0 00000+0 0 9995 2 36581 1.7107 82.2195 0003401 69.0893 333.1546 1.00269201 59832
UTC large
Height (km)
Speed (km/s)
/
Latitude / Longitude
Inclination (degrees)
Orbital Period (minutes)
Azimuth
Elevation
Range (km)
Doppler Factor

Next 0 passes for location: London (51.5072 / 0.1276)

No passes found over London.
ASTRA 3B